Frederick, MD

3:07 AM EST on December 15, 2019 (GMT -0500)
Frederick Municipal

Weather History for KFDK - November, 2019

Change the Weather History Date:

Saturday, November 16, 2019

  Actual Average (WUND) Record (WUND)
Temperature  
Mean Temperature 37 °F -  
Max Temperature 46 °F - - (-1)
Min Temperature 28 °F - - (-1)
Degree Days  
Heating Degree Days 28    
Moisture  
Dew Point 22 °F    
Average Humidity 67    
Maximum Humidity 93    
Minimum Humidity 23    
Precipitation  
Precipitation 0.00 in - - ()
Sea Level Pressure  
Sea Level Pressure 30.34 in    
Wind  
Wind Speed 4 mph (NNE)    
Max Wind Speed 18 mph    
Max Gust Speed 25 mph    
Visibility 10 miles    
Events      
Averages and records for this station are not official NWS values.
T = Trace of Precipitation, MM = Missing Value Source: NWS Daily Summary

Daily Weather History Graph

Daily Weather History Graph

Search for Another Location

Airport or City:

Astronomy

Nov. 16, 2019 Rise Set
Actual Time 6:54 AM EST 4:53 PM EST
Civil Twilight 6:25 AM EST 5:22 PM EST
Nautical Twilight 5:52 AM EST 5:55 PM EST
Astronomical Twilight 5:21 AM EST 6:26 PM EST
Moon 8:25 PM EST (11/16) 10:45 AM EST (11/16)
Length of Visible Light 10h 57m
Length of Day
9h 59m
Waning Gibbous, 82% of the Moon is Illuminated
Nov 16
Waning Gibbous
Nov 19
Last Quarter
Nov 26
New
Dec 4
First Quarter
Dec 12
Full

Hourly Weather History & Observations

Time (EST) Temp. Windchill Dew Point Humidity Pressure Visibility Wind Dir Wind Speed Gust Speed Precip Events Conditions
12:15 AM 33.8 °F 28.6 °F 28.4 °F 81% 30.27 in 10.0 mi NNE 5.8 mph - N/A   Clear
12:35 AM 33.8 °F - 26.6 °F 75% 30.27 in 10.0 mi Calm Calm - N/A   Clear
12:55 AM 33.8 °F 29.6 °F 28.4 °F 81% 30.27 in 10.0 mi NNE 4.6 mph - N/A   Clear
1:15 AM 35.6 °F 29.2 °F 28.4 °F 75% 30.27 in 10.0 mi NNE 8.1 mph - N/A   Clear
1:35 AM 35.6 °F 29.2 °F 30.2 °F 81% 30.27 in 10.0 mi North 8.1 mph - N/A   Clear
1:55 AM 35.6 °F 32.8 °F 30.2 °F 81% 30.27 in 10.0 mi NNE 3.5 mph - N/A   Clear
2:15 AM 33.8 °F - 28.4 °F 81% 30.27 in 10.0 mi Calm Calm - N/A   Scattered Clouds
2:35 AM 33.8 °F - 30.2 °F 87% 30.27 in 10.0 mi Calm Calm - N/A   Scattered Clouds
2:55 AM 32.0 °F - 30.2 °F 93% 30.28 in 10.0 mi Calm Calm - N/A   Mostly Cloudy
3:15 AM 32.0 °F - 28.4 °F 87% 30.28 in 10.0 mi Calm Calm - N/A   Scattered Clouds
3:35 AM 30.2 °F - 28.4 °F 93% 30.28 in 10.0 mi Calm Calm - N/A   Clear
3:55 AM 30.2 °F - 28.4 °F 93% 30.29 in 10.0 mi Calm Calm - N/A   Clear
4:15 AM 30.2 °F - 28.4 °F 93% 30.29 in 10.0 mi Calm Calm - N/A   Clear
4:35 AM 28.4 °F - 26.6 °F 93% 30.30 in 7.0 mi Calm Calm - N/A   Clear
5:15 AM 30.2 °F - 26.6 °F 86% 30.32 in 10.0 mi Calm Calm - N/A   Clear
5:35 AM 28.4 °F - 26.6 °F 93% 30.33 in 10.0 mi Calm Calm - N/A   Clear
5:55 AM 30.2 °F - 26.6 °F 86% 30.34 in 10.0 mi Calm Calm - N/A   Clear
6:15 AM 30.2 °F - 28.4 °F 93% 30.35 in 10.0 mi Calm Calm - N/A   Clear
6:35 AM 28.4 °F - 26.6 °F 93% 30.36 in 10.0 mi Calm Calm - N/A   Clear
6:55 AM 28.4 °F - 26.6 °F 93% 30.37 in 7.0 mi Calm Calm - N/A   Clear
7:00 AM 28.4 °F 24.6 °F 26.6 °F 93% 30.37 in 7.0 mi North 3.5 mph - N/A   Clear
7:47 AM 30.2 °F 25.4 °F 28.4 °F 93% 30.40 in 10.0 mi NNE 4.6 mph - N/A   Scattered Clouds
8:47 AM 37.4 °F 29.3 °F 28.4 °F 70% 30.41 in 10.0 mi NNE 12.7 mph 19.6 mph N/A   Partly Cloudy
9:47 AM 39.2 °F 29.8 °F 24.8 °F 56% 30.41 in 10.0 mi NNE 18.4 mph 25.3 mph N/A   Partly Cloudy
10:47 AM 42.8 °F 35.4 °F 21.2 °F 42% 30.41 in 10.0 mi NE 15.0 mph 24.2 mph N/A   Clear
12:47 PM 44.6 °F 38.4 °F 17.6 °F 34% 30.36 in 10.0 mi NNE 12.7 mph 19.6 mph N/A   Clear
1:47 PM 46.4 °F 41.1 °F 17.6 °F 32% 30.35 in 10.0 mi ENE 11.5 mph 16.1 mph N/A   Clear
2:47 PM 44.6 °F 38.8 °F 12.2 °F 27% 30.36 in 10.0 mi ENE 11.5 mph 12.7 mph N/A   Clear
3:47 PM 44.6 °F 38.8 °F 10.4 °F 25% 30.36 in 10.0 mi ENE 11.5 mph 17.3 mph N/A   Clear
4:47 PM 42.8 °F 36.6 °F 6.8 °F 23% 30.37 in 10.0 mi East 11.5 mph - N/A   Clear
5:47 PM 37.4 °F 33.8 °F 8.6 °F 30% 30.39 in 10.0 mi ENE 4.6 mph - N/A   Clear
6:47 PM 35.6 °F 31.7 °F 10.4 °F 35% 30.40 in 10.0 mi ENE 4.6 mph - N/A   Clear
7:47 PM 33.8 °F 27.7 °F 10.4 °F 38% 30.39 in 10.0 mi NE 6.9 mph - N/A   Clear
8:47 PM 30.2 °F 26.7 °F 14.0 °F 51% 30.39 in 10.0 mi NNE 3.5 mph - N/A   Clear
9:35 PM 30.2 °F 24.3 °F 15.8 °F 55% 30.39 in 10.0 mi North 5.8 mph - N/A   Clear
9:55 PM 30.2 °F 25.4 °F 14.0 °F 51% 30.40 in 10.0 mi North 4.6 mph - N/A   Scattered Clouds
10:15 PM 30.2 °F 25.4 °F 15.8 °F 55% 30.40 in 10.0 mi North 4.6 mph - N/A   Overcast
10:35 PM 30.2 °F - 19.4 °F 64% 30.39 in 10.0 mi Calm Calm - N/A   Overcast
10:55 PM 30.2 °F 24.3 °F 17.6 °F 60% 30.38 in 10.0 mi NNE 5.8 mph - N/A   Overcast
11:15 PM 32.0 °F 25.6 °F 15.8 °F 51% 30.38 in 10.0 mi NNE 6.9 mph - N/A   Overcast
11:35 PM 32.0 °F 24.2 °F 15.8 °F 51% 30.37 in 10.0 mi NNE 9.2 mph - N/A   Overcast
11:55 PM 32.0 °F 24.8 °F 15.8 °F 51% 30.37 in 10.0 mi NNE 8.1 mph - N/A   Overcast